Palacios, TX

5:46 AM CST on February 25, 2018 (GMT -0600)
Palacios Municipal

Weather History for KPSX - February, 2018

Change the Weather History Date:

Wednesday, February 14, 2018

  Actual Average Record
Temperature  
Mean Temperature 64 °F -  
Max Temperature 73 °F 68 °F 79 °F (2005)
Min Temperature 55 °F 51 °F 30 °F (1951)
Degree Days  
Heating Degree Days 1    
Growing Degree Days 14 (Base 50)    
Moisture  
Dew Point 66 °F    
Average Humidity 98    
Maximum Humidity 100    
Minimum Humidity 91    
Precipitation  
Precipitation 0.00 in - - ()
Sea Level Pressure  
Sea Level Pressure 30.24 in    
Wind  
Wind Speed 6 mph (SSE)    
Max Wind Speed 13 mph    
Max Gust Speed -    
Visibility 3 miles    
Events Fog    
Averages and records for this station are not official NWS values.
T = Trace of Precipitation, MM = Missing Value Source: NWS Daily Summary

Daily Weather History Graph

Daily Weather History Graph

Search for Another Location

Airport or City:

Trip Planner

Search our weather history database for the weather conditions in past years. The results will help you decide how hot, cold, wet, or windy it might be!

Date:

Astronomy

Feb. 14, 2018 Rise Set
Actual Time 7:04 AM CST 6:14 PM CST
Civil Twilight 6:39 AM CST 6:38 PM CST
Nautical Twilight 6:12 AM CST 7:06 PM CST
Astronomical Twilight 5:44 AM CST 7:34 PM CST
Moon 6:17 AM CST (2/14) 5:22 PM CST (2/14)
Length of Visible Light 11h 58m
Length of Day
11h 10m
Waning Crescent, 1% of the Moon is Illuminated
Feb 14
Waning Crescent
Feb 15
New
Feb 23
First Quarter
Mar 1
Full
Mar 9
Last Quarter

Hourly Weather History & Observations

Time (CST) Temp. Dew Point Humidity Pressure Visibility Wind Dir Wind Speed Gust Speed Precip Events Conditions
12:53 AM 55.0 °F 55.0 °F 100% 30.31 in 0.2 mi North 5.8 mph - 0.00 in Fog Fog
1:53 AM 55.0 °F 55.0 °F 100% 30.29 in 0.5 mi North 5.8 mph - N/A Fog Fog
2:53 AM 55.0 °F 55.0 °F 100% 30.28 in 0.5 mi NNE 5.8 mph - N/A Fog Fog
3:53 AM 55.0 °F 55.0 °F 100% 30.28 in 0.5 mi NNW 5.8 mph - N/A Fog Fog
4:53 AM 55.0 °F 55.0 °F 100% 30.27 in 0.5 mi Calm Calm - N/A Fog Fog
5:53 AM 55.9 °F 55.9 °F 100% 30.26 in 0.5 mi ENE 3.5 mph - N/A Fog Fog
6:53 AM 57.0 °F 57.0 °F 100% 30.27 in 0.2 mi NE 4.6 mph - N/A Fog Fog
7:53 AM 57.9 °F 57.9 °F 100% 30.29 in 0.2 mi North 4.6 mph - N/A Fog Fog
8:53 AM 61.0 °F 61.0 °F 100% 30.29 in 0.2 mi Calm Calm - N/A Fog Fog
9:53 AM 66.0 °F 66.0 °F 100% 30.32 in 0.2 mi SSW 3.5 mph - N/A Fog Fog
10:08 AM 66.9 °F 66.9 °F 100% 30.32 in 2.0 mi Variable 3.5 mph - N/A   Overcast
10:20 AM 68.0 °F 68.0 °F 100% 30.31 in 4.0 mi South 5.8 mph - N/A   Overcast
10:40 AM 69.1 °F 69.1 °F 100% 30.31 in 9.0 mi SSW 8.1 mph - N/A   Overcast
10:53 AM 69.1 °F 69.1 °F 100% 30.30 in 10.0 mi South 10.4 mph - N/A   Overcast
11:15 AM 70.0 °F 70.0 °F 100% 30.29 in 4.0 mi South 10.4 mph - N/A   Overcast
11:53 AM 71.1 °F 70.0 °F 96% 30.27 in 6.0 mi SSE 12.7 mph - N/A   Overcast
12:11 PM 73.0 °F 71.1 °F 93% 30.27 in 8.0 mi South 12.7 mph - N/A   Overcast
12:53 PM 70.0 °F 69.1 °F 97% 30.26 in 2.5 mi SSW 6.9 mph - N/A   Overcast
1:00 PM 70.0 °F 69.1 °F 97% 30.26 in 3.0 mi SSW 6.9 mph - N/A   Overcast
1:36 PM 71.1 °F 69.1 °F 93% 30.25 in 8.0 mi South 8.1 mph - N/A   Overcast
1:46 PM 72.0 °F 69.1 °F 91% 30.24 in 7.0 mi South 6.9 mph - N/A   Overcast
1:53 PM 72.0 °F 69.1 °F 91% 30.24 in 7.0 mi South 6.9 mph - N/A   Overcast
2:30 PM 71.1 °F 69.1 °F 93% 30.24 in 6.0 mi South 6.9 mph - N/A   Overcast
2:53 PM 72.0 °F 69.1 °F 91% 30.22 in 7.0 mi SSW 8.1 mph - N/A   Overcast
3:04 PM 72.0 °F 69.1 °F 91% 30.22 in 7.0 mi South 6.9 mph - N/A   Overcast
3:14 PM 71.1 °F 69.1 °F 93% 30.21 in 7.0 mi SSW 8.1 mph - N/A   Overcast
3:53 PM 71.1 °F 69.1 °F 93% 30.21 in 6.0 mi SSW 8.1 mph - N/A   Overcast
4:53 PM 69.1 °F 69.1 °F 100% 30.21 in 2.5 mi SSW 5.8 mph - N/A   Overcast
4:57 PM 69.1 °F 69.1 °F 100% 30.21 in 1.8 mi SSW 5.8 mph - N/A   Overcast
5:09 PM 68.0 °F 68.0 °F 100% 30.20 in 0.8 mi South 5.8 mph - N/A   Overcast
5:53 PM 66.9 °F 66.9 °F 100% 30.20 in 0.2 mi South 5.8 mph - N/A Fog Fog
6:53 PM 66.9 °F 66.9 °F 100% 30.20 in 1.2 mi Calm Calm - N/A   Overcast
7:46 PM 66.0 °F 66.0 °F 100% 30.19 in 0.8 mi South 3.5 mph - N/A   Mist
7:53 PM 64.9 °F 64.9 °F 100% 30.19 in 0.5 mi SE 5.8 mph - N/A Fog Fog
8:53 PM 66.9 °F 66.9 °F 100% 30.19 in 0.2 mi ESE 5.8 mph - N/A Fog Fog
9:53 PM 66.9 °F 66.9 °F 100% 30.19 in 1.0 mi SE 6.9 mph - N/A   Overcast
10:01 PM 66.9 °F 66.9 °F 100% 30.20 in 0.8 mi SE 5.8 mph - N/A   Mist
10:41 PM 66.9 °F 66.9 °F 100% 30.19 in 2.0 mi SE 10.4 mph - N/A   Overcast
10:47 PM 66.2 °F 66.2 °F 100% 30.19 in 4.0 mi SSE 10.4 mph - N/A   Overcast
10:53 PM 66.9 °F 66.9 °F 100% 30.19 in 5.0 mi SE 10.4 mph - N/A   Overcast
11:11 PM 66.9 °F 66.9 °F 100% 30.18 in 5.0 mi SE 10.4 mph - N/A   Overcast
11:25 PM 66.9 °F 66.9 °F 100% 30.18 in 1.8 mi SE 10.4 mph - N/A   Overcast
11:30 PM 66.9 °F 66.9 °F 100% 30.18 in 2.0 mi SE 11.5 mph - N/A   Overcast
11:47 PM 66.2 °F 66.2 °F 100% 30.17 in 3.0 mi SE 12.7 mph - N/A   Overcast
11:53 PM 66.9 °F 66.9 °F 100% 30.17 in 3.0 mi SSE 10.4 mph - N/A   Overcast